FENGYUN 1C DEB, 30883

Orbit data source: Space-Track

FENGYUN 1C DEB, 30883 is space debris in SSO originally from a launch on Mon, 10 May 1999 UTC launched from the Taiyaun Space Center, China (TSC). Fengyun 1C debris stems from the Chinese weather satellite Fengyun-1C, which was intentionally destroyed by a Chinese anti-satellite missile in 2007. This event dramatically increased the amount of space debris, with thousands of trackable fragments posing hazards to satellites and human spaceflight. The Fengyun 1C debris cloud has become a focal point in discussions about space sustainability and the need for international regulations to prevent the creation of new debris.

Loading next visibility...
Identifier
30883, 1999-025AXV
Orbit
SSO
Country
Flag of CNCN / PRC
Related business
Manufacturer
Unknown
Mission
Spacecraft
Bus & Motor
Unknown
Mass
Unknown
Launch date (UTC)
1999-05-10 (27 years ago)
Launch vehicle
Unknown
Launch site
Taiyaun Space Center, China (TSC)
Object type
Payload
Rocket body
Debris
Shape & HBR
Unknown shape, 0.1 m
Radar Cross Section
Medium (>0.1 m² and <1 m²)

Expand to show TLE details & history
Last TLE update: 1 week ago

TLE from 1 week ago
0 FENGYUN 1C DEB
1 30883U 99025AXV 26152.90529258  .00000354  00000-0  19178-3 0  9994
2 30883  98.3378 184.0109 0113505  80.6610  40.5878 14.14676258993378
Epoch: 2026-06-01T21:43Z
TLE epoch observation values (Epoch: 2026-06-01T21:43:37.278Z)
Latitude
57.0431°
Longitude
160.71358°
Altitude
791.091 km
Speed
7.496 km/s
True Right ascension
01h 08m 01s
True Declination
56° 53' 12"
Sunlit
Object was in daylight at epoch
Visualization orbit readout
Latitude
Unknown
Longitude
Unknown
Altitude
Unknown
Speed
Unknown
Apparent Right ascension
Unknown
Apparent Declination
Unknown
Sunlit
N/A
Visualization observer readout
Local Sidereal Time
05:38:29
Azimuth
Unknown
Elevation
Unknown
Doppler factor
Unknown
Orbital elements
Apogee altitude
922.497 km
Perigee altitude
758.626 km
Semi-major axis
7,218.698 km
Eccentricity
0.01135
Inclination
98.3378°
RAAN
184.0109°
Arg. of periapsis
80.661°
True anomaly
41.44321°
Mean anomaly
40.5878°
Eccentric anomaly
41.01458°
Mean motion
3.53879 °/min
Orbital period
101.73 mins
BSTAR
0.00019178
Loading maneuver chart data...
Computing Atmospheric mass density...
Loading historical data...
Loading historical data...
Loading historical data...
Loading historical data...
Loading historical data...
Loading historical data...
Loading historical data...

Documentation

Showing up to 5 results
|